Weather in Yermakovo

Russia / Yaroslavl Oblast     58°19′19″N   41°00′33″E
temp.,
°C
wind,
m/s
gust,
m/s
humid.,
%
clouds,
%
prec.,
mm/h
press.,
hPa
HPBL,
m
17 may, mon
mon1700:00+12sw28975 0.0 1013178
03:00+11sw22970 0.0 101537
06:00+13wsw1292100 0.0 101696
09:00+17ssw127673 0.0 1017441
12:00+22se1154100 0.0 10171146
15:00+23ese13485 0.0 10171601
18:00+22e246398 0.0 1016193
21:00+16e38857 0.0 1016135
18 may, tue
tue1800:00+15e31091100 0.6 1016213
03:00+14e389615 2.3 1016198
06:00+15e399591 0.0 1016271
09:00+21se477287 0.0 1015475
12:00+25se585398 0.0 1015945
15:00+28se511431 0.0 10143055
18:00+24se4106093 0.0 1013741
21:00+19ese314735 0.0 1014364
19 may, wed
wed1900:00+17ese3127787 0.0 1013323
03:00+16ese310885 0.0 1013248
06:00+18se413755 0.0 1013408
09:00+24se511534 0.0 1013672
12:00+28se511403 0.0 10121414
15:00+29se510400 0.0 10121783
18:00+25se511521 0.0 1011868
21:00+22se515655 0.0 1012698
20 may, thu
thu2000:00+16e258899 0.6 101289
03:00+16se2695100 1.0 1011151
06:00+16ese389130 0.0 1010262
09:00+22se47625 0.0 1010730
12:00+26se610475 0.0 10081480
15:00+26se714530 0.1 10072000
18:00+20s614794 1.1 10091350
21:00+15sse39935 1.4 1009352
21 may, fri
fri2100:00+14sse4129180 0.0 1009690
03:00+13s4129567 0.0 1009649
06:00+13s5989100 0.2 10091072
09:00+14ssw6107574 0.4 10111283
12:00+15ssw5116499 0.1 10131588
15:00+16sw596452 0.2 10151419
18:00+16sw476493 0.1 10161316
21:00+12s2484100 0.1 101668